Regional Weather Roundup
Issued by NWS

Home | Current Version | Previous Version | Text Only | Print | Product List | Glossary On
Versions: 1 2 3 4 5 6 7 8 9 10 11 12 13 14 15 16 17 18 19 20 21 22 23 24 25 26 27 28 29 30 31 32 33 34 35 36 37 38 39 40 41 42 43 44 45 46 47 48 49 50
000
ASUS46 KLOX 270613
RWRCA

SOUTHERN CALIFORNIA WEATHER ROUNDUP
NATIONAL WEATHER SERVICE OXNARD CALIFORNIA
1100 PM PDT SUN MAR 26 2017

NOTE: "FAIR" INDICATES FEW OR NO CLOUDS BELOW 12,000 FEET WITH NO
SIGNIFICANT WEATHER AND/OR OBSTRUCTIONS TO VISIBILITY.

  -  STATIONS PRECEEDED BY AN ASTERISK (*) ARE NOT NWS OR FAA
     STATIONS AND ARE NOT SUBJECT TO NWS AND FAA QUALITY CONTROL.

CAZ041-042-087-270700-
LA AND ORANGE COUNTY COASTAL AREAS


CITY           SKY/WX    TMP DP  RH WIND       PRES   REMARKS
L.A. DOWNTOWN  CLEAR     60  52  74 CALM      30.03F
L.A. AIRPORT   PTCLDY    58  52  80 W15       30.04S
LONG BEACH     CLEAR     59  49  69 NW6       30.04S

CITY           SKY/WX    TMP DP  RH WIND       PRES   REMARKS
AVALON           N/A     55 N/A N/A S3          N/A
FULLERTON      CLEAR     59  51  75 CALM      30.04S
*GETTY CENTER    N/A     52  50  93 SW1         N/A
HAWTHORNE      CLEAR     58  51  78 W6        30.05R
*LEO CARRILLO    N/A     53  49  84 N5          N/A
*LOS ALAMITOS  FAIR      56  49  79 CALM      30.04S
*REDONDO BEACH   N/A     58  52  80 CALM      30.04S
SANTA ANA      PTCLDY    60  55  83 CALM      30.05S
STA MONICA APT CLEAR     57  53  86 CALM      30.05S
*UCLA            N/A     55  50  82 CALM      30.01S

$$

CAZ547-548-048-270700-
LA COUNTY VALLEYS AND INLAND EMPIRE


CITY           SKY/WX    TMP DP  RH WIND       PRES   REMARKS
BURBANK        CLEAR     58  49  72 CALM      30.03S
VAN NUYS       CLEAR     58  49  72 CALM      30.03S

CITY           SKY/WX    TMP DP  RH WIND       PRES   REMARKS
CORONA AIRPORT CLEAR     57  52  83 NW6       30.04S
*CHATSWORTH      N/A     56  49  76 CALM      30.05S
CHINO          CLEAR     56  52  86 W7        30.05S
*CLAREMONT       N/A     54  50  86 CALM        N/A
MARCH AFB      PTCLDY    52  52 100 NW3       30.04S
ONTARIO        PTCLDY    55  51  86 W7        30.04S
*PASADENA        N/A     57  52  82 N1          N/A
RIVERSIDE      MOCLDY    56  53  90 CALM      30.04S
SAN BERNARDINO CLOUDY    59  51  76 W5        30.04S
*SAN RAFAEL HI   N/A     55  49  80 NW2         N/A
*SAUGUS          N/A     54  49  83 S2          N/A
*WHITEMAN AP   NOT AVBL
*WHITTIER HILL   N/A     54  53  96 S3          N/A
*WOODLAND HILL   N/A     54  46  76 SE2         N/A

$$

CAZ054-055-270700-
LA AND SAN BERNARDINO COUNTY MOUNTAINS


CITY           SKY/WX    TMP DP  RH WIND       PRES   REMARKS
*ACTON           N/A     49  47  92 SE3         N/A
*BIG BEAR AIRP CLEAR     34  30  86 CALM      30.08F
*BIG PINES       N/A     43  34  70 CALM        N/A
*CHILAO          N/A     42  42 100 CALM        N/A
SANDBERG       PTCLDY    45  41  86 N12G30    30.09F
*WARM SPRINGS    N/A     47  36  66 W21G32      N/A

$$

CAZ028-029-059-060-099-270700-
ANTELOPE VALLEY AND SURROUNDING AREAS


CITY           SKY/WX    TMP DP  RH WIND       PRES   REMARKS
LANCASTER      CLEAR     53  40  61 W28G33    30.01F
PALMDALE       CLEAR     51  44  77 SW7       30.02F
*POPPY PARK      N/A     51  39  63 W17G29      N/A

CITY           SKY/WX    TMP DP  RH WIND       PRES   REMARKS
29 PALMS       CLEAR     62  39  42 NW6       29.99F
BARSTOW/DAGGET CLEAR     59  41  51 W22G29    29.93F
BISHOP         PTCLDY    47  29  49 W3        29.90F
CHINA LAKE     CLEAR     57  36  45 SE5       29.89F
EDWARDS AFB    CLEAR     54  38  55 SW16G25   29.97S
MOJAVE         CLEAR     54  32  43 W22G36    29.97S
NEEDLES        MOCLDY    71  31  22 S5        29.86F
VICTORVILLE    CLEAR     52  39  62 SW6       30.01F

$$

CAZ039-040-270700-
VENTURA AND SANTA BARBARA COUNTY COAST


CITY           SKY/WX    TMP DP  RH WIND       PRES   REMARKS
CAMARILLO      CLEAR     56  50  80 NE5       30.03S
NWS OXNARD       N/A     55  49  81 CALM      30.02S
OXNARD AIRPORT CLEAR     58  51  78 NE3       30.03S
*POINT MUGU    PTCLDY    56  51  84 NE3       30.04S
SBA APT/GOLETA CLEAR     57  47  69 N9        30.03F
*SANTA BARBARA   N/A     58  47  69 CALM      30.11F
*VENTURA         N/A     54  50  87 NW1       30.01F

$$

CAZ044-045-270700-
VENTURA COUNTY VALLEYS


CITY           SKY/WX    TMP DP  RH WIND       PRES   REMARKS
*SIMI VALLEY     N/A     53  49  86 NE1       30.00S
*WESTLAKE VILL   N/A     48  44  85 CALM      30.03S
*OJAI            N/A     62  52  69 CALM      29.97F

$$

CAZ053-270700-
VENTURA COUNTY MOUNTAINS


CITY           SKY/WX    TMP DP  RH WIND       PRES   REMARKS
*LOCKWOOD VLY    N/A     36  32  87 MISG        N/A
*FRAZIER MTN     N/A     31  27  83 CALM      29.76S
*ROSE VALLEY     N/A     41  41 100 MISG        N/A

$$

CAZ034-035-036-270700-
CENTRAL COAST AND SANTA YNEZ VALLEY


CITY           SKY/WX    TMP DP  RH WIND       PRES   REMARKS
SAN LUIS OBISP PTCLDY    55  51  86 NW6       30.11F
SANTA MARIA    CLEAR     51  50  96 CALM      30.12F

CITY           SKY/WX    TMP DP  RH WIND       PRES   REMARKS
*LOMPOC        PTCLDY    53  51  93 CALM      30.11F
*PISMO BEACH     N/A     56  51  82 CALM      30.11S
*SANTA YNEZ    FAIR      48  45  87 SW7       30.10S

$$

CAZ037-038-051-270700-
SAN LUIS OBISPO COUNTY INTERIOR AND CUYAMA VALLEY


CITY           SKY/WX    TMP DP  RH WIND       PRES   REMARKS
*CUYAMA          N/A     49  45  85 CALM      30.06S
PASO ROBLES    PTCLDY    53  47  79 SW5       30.09F

$$

CAZ032-033-061-270700-
SOUTHERN DESERTS


CITY           SKY/WX    TMP DP  RH WIND       PRES   REMARKS
BLYTHE         CLEAR     72  34  24 SW8       29.86F
IMPERIAL       CLEAR     65  46  50 W12       29.87F
PALM SPRINGS   CLEAR     69  48  47 NW12      29.90F
THERMAL        CLEAR     70  48  45 NW12      29.86F

$$

ELSEWHERE ACROSS THE WESTERN UNITED STATES AND MEXICO


CITY           SKY/WX    TMP DP  RH WIND       PRES   REMARKS
DEATH VALLEY,    N/A     74  38  27 SE2         N/A
DENVER, CO     CLOUDY    41  35  79 NE3       29.98S
GRAND CANYON,  PTCLDY    33  28  81 CALM      30.07F
HONOLULU, HI   PTCLDY    77  64  65 NE14      30.12R
KAHULUI, MAUI  PTCLDY    75  64  69 E15G26    30.11R
LAKE TAHOE, CA RAIN      35  33  92 SW5       30.00R FOG     WCI  31
LAS VEGAS, NV  MOCLDY    65  29  25 S5        29.87F
MAMMOTH LAKES, FAIR      33  28  83 SE7       30.02S WCI  27
MEXICO CITY, M MOCLDY    59  45  58 E6        30.35F
PHOENIX, AZ    MOCLDY    70  34  26 E5        29.89S
PORTLAND, OR   MOCLDY    46  44  93 E7        29.90R
RENO, NV       LGT RAIN  44  38  79 NW10      29.96R
SALT LAKE CITY CLOUDY    50  33  52 SE6       29.92F
SAN DIEGO, CA  MOCLDY    61  52  72 NW5       30.07S
SAN FRANCISCO, MOCLDY    55  50  83 W16       30.11R
SAN JOSE, CA   MOCLDY    55  51  86 W6        30.11R
SEATTLE, WA    LGT RAIN  46  44  93 S10       29.83R FOG
TIJUANA, MEX   CLOUDY    57  50  77 CALM      30.08S

$$

STATION/POSITION TIME  TEMP    WIND        PRES    VSBY  WAVE
                       AIR SEA DIR/SP/G                  HT/PER
                 (UTC) (F)     (DEG/KT/KT) (MB)    (MI)  (FT/S)
POINT ARGUELLO B NOT AVBL
WEST SANTA BARBA 0550   56 56  330/ 16/ 17 1019.1R         7/13
POINT CONCEPTION NOT AVBL
EAST SANTA BARBA 0600          290/ 21/ 25 1017.6
SANTA MONICA BAY 0600   59 60  290/ 14/ 17 1016.9


USA.gov is the U.S. government's official web portal to all federal, state and local government web resources and services.